[[{"header":{"parameterUnit":"m.s-1","parameterCategory":1,"la1":30.2992,"la2":30.254,"lo1":-89.0895,"lo2":-89.0443,"dy":0.0025,"dx":0.0025,"nx":19,"ny":19,"refTime":"2026-03-09T21:00:00:Z","depth":0,"parameterNumber":2,"parameterNumberName":"U-component_of_WINDS"},"data":[0,0,0,-2.085,-2.085,-2.0895,-2.0895,-2.0947,-2.0948,0,0,0,0,0,0,0,0,0,0,0,-2.0834,-2.0834,-2.085,-2.0851,-2.0895,-2.0895,-2.0947,-2.0948,0,0,0,0,0,0,0,0,0,0,0,-2.0834,-2.0834,-2.0834,-2.0851,-2.0895,-2.0895,-2.0947,-2.0915,0,0,0,0,0,0,0,0,0,0,-2.0873,-2.0856,-2.0834,-2.0834,-2.0851,-2.0895,-2.0895,-2.0914,-2.0917,-2.0926,0,-2.0932,0,-2.0941,-2.0951,-2.0951,0,0,0,-2.0853,-2.0853,-2.0867,-2.0834,-2.0851,-2.0895,-2.0875,-2.0916,-2.092,-2.093,-2.0933,-2.0935,-2.0942,-2.0951,-2.0952,-2.0991,-2.0991,0,0,-2.085,-2.0841,-2.0865,-2.087,-2.0862,-2.0874,-2.0877,-2.0918,-2.0921,-2.0933,-2.0936,-2.0942,-2.0952,-2.0952,-2.0991,-2.0991,0,0,0,-2.0842,-2.0839,-2.0852,-2.0868,-2.0876,-2.0875,-2.0878,-2.0919,-2.0924,-2.0937,-2.0943,-2.0952,-2.0953,-2.0991,-2.0991,-2.0985,0,0,0,-2.084,-2.0834,-2.0851,-2.0845,-2.0875,-2.0898,-2.0878,-2.0921,-2.0926,-2.0943,-2.0952,-2.0953,-2.0991,-2.0991,-2.0985,-2.0984,0,0,0,-2.0832,-2.0833,-2.0838,-2.0845,-2.0863,-2.0897,-2.0905,-2.0922,-2.093,-2.0951,-2.0953,-2.0991,-2.0991,-2.0985,-2.0984,-2.0991,0,0,0,-2.082,-2.0833,-2.0838,-2.0855,-2.0863,-2.0893,-2.0905,-2.0928,-2.0946,-2.0952,-2.0991,-2.0991,-2.0985,-2.0984,-2.0991,-2.0995,-2.0996,0,0,-2.0831,-2.0834,-2.0845,-2.0851,-2.0878,-2.0887,-2.0914,-2.094,-2.0951,-2.0977,-2.0978,-2.0985,-2.0984,-2.0991,-2.1004,-2.1005,0,0,0,-2.0845,-2.0853,-2.0862,-2.0878,-2.0898,-2.0914,-2.0937,-2.0946,-2.0969,-2.0962,-2.099,-2.099,-2.0994,-2.0997,-2.0997,-2.1001,-2.0992,-2.0992,-2.0992,-2.0847,-2.086,-2.0879,-2.0897,-2.0912,-2.0935,-2.0949,-2.0965,-2.0975,-2.0981,-2.0989,-2.0995,-2.0997,-2.0998,-2.1002,-2.0992,-2.0992,-2.0992,-2.0992,-2.0864,-2.0877,-2.0888,-2.091,-2.0923,-2.0942,-2.0964,-2.097,-2.0989,-2.0991,-2.0995,-2.0995,-2.0998,-2.1002,-2.0992,-2.0992,-2.0992,-2.0992,-2.0992,-2.0867,-2.0875,-2.0886,-2.091,-2.0927,-2.0945,-2.0962,-2.0975,-2.0986,-2.0991,-2.1,-2.1,-2.1001,-2.0994,-2.0994,-2.0994,-2.0994,-2.0994,-2.0995,-2.0865,-2.0877,-2.089,-2.0911,-2.0923,-2.0939,-2.0962,-2.0974,-2.099,-2.0997,-2.0998,-2.1006,-2.0996,-2.0993,-2.0995,-2.0995,-2.0995,-2.0995,-2.0995,-2.0876,-2.0875,-2.0896,-2.0907,-2.0932,-2.0948,-2.0963,-2.0986,-2.0998,-2.1006,-2.1013,-2.1004,-2.1008,-2.1008,-2.1005,-2.1011,-2.1011,-2.1011,-2.1011,-2.0878,-2.0881,-2.0904,-2.0921,-2.0939,-2.0955,-2.0977,-2.0995,-2.1013,-2.1021,-2.1022,-2.102,-2.1019,-2.1024,-2.1023,-2.1021,-2.103,-2.103,-2.103,-2.0885,-2.0891,-2.0907,-2.0924,-2.0945,-2.0962,-2.0983,-2.1003,-2.1024,-2.1031,-2.1027,-2.1026,-2.1023,-2.1022,-2.1029,-2.1027,-2.1024,0,0]},{"header":{"parameterUnit":"m.s-1","parameterCategory":1,"la1":30.2992,"la2":30.254,"lo1":-89.0895,"lo2":-89.0443,"dy":0.0025,"dx":0.0025,"nx":19,"ny":19,"refTime":"2026-03-09T21:00:00:Z","depth":0,"parameterNumber":3,"parameterNumberName":"V-component_of_WINDS"},"data":[0,0,0,4.6935,4.6939,4.7136,4.7137,4.7384,4.7386,0,0,0,0,0,0,0,0,0,0,0,4.6872,4.6874,4.6935,4.694,4.7136,4.7137,4.7383,4.7386,0,0,0,0,0,0,0,0,0,0,0,4.6872,4.6873,4.6875,4.694,4.7136,4.7137,4.7383,4.7236,0,0,0,0,0,0,0,0,0,0,4.7046,4.6983,4.6873,4.6875,4.6941,4.7136,4.7137,4.7229,4.7246,4.7292,0,4.7331,0,4.7362,4.7402,4.7403,0,0,0,4.6943,4.697,4.7027,4.6876,4.6943,4.7135,4.7048,4.7239,4.7257,4.7313,4.7334,4.7344,4.7366,4.7403,4.7405,4.766,4.7661,0,0,4.6932,4.6905,4.7014,4.7039,4.7006,4.7042,4.7054,4.725,4.7271,4.7335,4.735,4.737,4.7405,4.7407,4.7659,4.766,0,0,0,4.6899,4.6898,4.695,4.7028,4.7064,4.7048,4.7062,4.7263,4.7282,4.7352,4.7373,4.7406,4.7409,4.7658,4.7659,4.7685,0,0,0,4.6892,4.6878,4.6945,4.6931,4.706,4.7165,4.707,4.7268,4.7291,4.7372,4.7407,4.7412,4.7656,4.7658,4.7681,4.7701,0,0,0,4.6861,4.6874,4.6901,4.6929,4.7012,4.7163,4.7194,4.7274,4.7304,4.7403,4.7412,4.7656,4.7658,4.7679,4.7697,4.7763,0,0,0,4.682,4.692,4.6901,4.7021,4.701,4.7176,4.7193,4.7318,4.7405,4.7408,4.7657,4.7659,4.7678,4.7694,4.7759,4.7814,4.7834,0,0,4.6931,4.6932,4.7005,4.6994,4.7156,4.7148,4.7316,4.7421,4.7455,4.759,4.7597,4.7682,4.7697,4.7762,4.795,4.7966,0,0,0,4.7031,4.7083,4.7132,4.7215,4.7298,4.7372,4.7455,4.7495,4.7611,4.7518,4.7724,4.7733,4.7773,4.78,4.7813,4.785,4.767,4.767,4.7669,4.715,4.7189,4.7313,4.7376,4.7456,4.7542,4.7611,4.768,4.7695,4.7743,4.7783,4.7893,4.7924,4.7934,4.7972,4.7814,4.7814,4.7814,4.7814,4.7318,4.7399,4.7418,4.7545,4.7587,4.7695,4.7783,4.779,4.7898,4.7865,4.7901,4.7863,4.795,4.7985,4.7817,4.7816,4.7816,4.7816,4.7815,4.7402,4.7448,4.7494,4.7619,4.7712,4.7773,4.7877,4.791,4.7942,4.7978,4.8027,4.8027,4.8033,4.7999,4.7999,4.8,4.8,4.8,4.8,4.7471,4.7523,4.7605,4.7704,4.7763,4.7845,4.7934,4.7993,4.8068,4.8085,4.8085,4.8098,4.795,4.7913,4.8007,4.8006,4.8005,4.8004,4.8004,4.763,4.76,4.7727,4.7786,4.7907,4.7998,4.804,4.8159,4.8213,4.8264,4.8269,4.8153,4.8157,4.8147,4.8117,4.8258,4.8258,4.8258,4.8258,4.7702,4.7707,4.7847,4.794,4.8035,4.8086,4.8233,4.8304,4.8373,4.841,4.8394,4.8357,4.8345,4.8356,4.8341,4.8314,4.8502,4.8502,4.8502,4.7804,4.782,4.7937,4.8004,4.8101,4.8185,4.8324,4.8432,4.8504,4.8513,4.844,4.843,4.837,4.8348,4.8356,4.8332,4.8283,0,0]}]]